{"data":{"norad_id":49177,"intl_designator":"2021-082AZ","name":"STARLINK-3103","alt_names":[],"object_type":"PAYLOAD","status":"ACTIVE","operator":null,"country":"US","launch_date":"2021-09-14","launch_site_code":"AFWTR","launch_vehicle":null,"mission":null,"orbit_class":"UNKNOWN","rcs_meters":null,"size_class":null,"mass_kg":null,"dimensions":null,"purposes":["comms"],"wikipedia_slug":null,"has_3d_model":false,"image_url":null,"decayed_at":null,"tle_current":{"epoch":"2026-09-19T14:19:37.968672Z","epoch_age_seconds":119356,"freshness":"FRESH","line1":"1 49177U 21082AZ  26262.59696723  .00000129  00000+0  18595-4 0  9999","line2":"2 49177  69.9988 125.5533 0002831 272.0713  88.0122 14.98329483277209","mean_motion":14.98329483,"eccentricity":0.0002831,"inclination_deg":69.9988,"raan_deg":125.5533,"arg_perigee_deg":272.0713,"mean_anomaly_deg":88.0122,"bstar":1.8595e-5,"rev_number":27720,"period_min":96.107032287504,"perigee_km":570.08988966469,"apogee_km":574.02508978477,"semimajor_km":6950.1944897247,"source":"CELESTRAK","updated_at":"2026-09-20T09:00:39.254310Z"}}}